Change the Weather History Date:

Friday, October 19, 2012

  Actual Average Record
Temperature  
Mean Temperature 48 °F 45 °F  
Max Temperature 71 °F 60 °F 82 °F (2003)
Min Temperature 25 °F 29 °F 20 °F (2002)
Degree Days  
Heating Degree Days 17 20  
Month to date heating degree days 372 328  
Since 1 July heating degree days 500 597  
Cooling Degree Days 0 0  
Month to date cooling degree days 0 0  
Year to date cooling degree days 831 486  
Moisture  
Dew Point 20 °F    
Average Humidity 42    
Maximum Humidity 68    
Minimum Humidity 16    
Precipitation  
Precipitation 0.00 in 0.03 in 0.12 in (1993)
Month to date precipitation 0.32 0.78  
Year to date precipitation 4.51 12.06  
Sea Level Pressure  
Sea Level Pressure 29.91 in    
Wind  
Wind Speed 10 mph (NW)    
Max Wind Speed 29 mph    
Max Gust Speed 38 mph    
Visibility 10 miles    
Events      
T = Trace of Precipitation, MM = Missing Value Source: NWS Daily Summary

Daily Weather History Graph

Daily Weather History Graph

Search for Another Location

Airport or City:

Trip Planner

Search our weather history database for the weather conditions in past years. The results will help you decide how hot, cold, wet, or windy it might be!

Date:

Astronomy

Oct. 19, 2012 Rise Set
Actual Time 7:20 AM MDT 6:11 PM MDT
Civil Twilight 6:51 AM MDT 6:40 PM MDT
Nautical Twilight 6:18 AM MDT 7:13 PM MDT
Astronomical Twilight 5:45 AM MDT 7:46 PM MDT
Moon 12:10 PM MDT (10/19) 9:48 PM MDT (10/19)
Length of Visible Light 11h 48m
Length of Day
10h 51m
Waxing Crescent, 24% of the Moon is Illuminated
Oct 19
Waxing Crescent
Oct 21
First Quarter
Oct 29
Full
Nov 6
Last Quarter
Nov 13
New

Hourly Weather History & Observations

Time (MDT) Temp. Windchill Dew Point Humidity Pressure Visibility Wind Dir Wind Speed Gust Speed Precip Events Conditions
12:53 AM 28.0 °F 20.8 °F 16.0 °F 61% 30.12 in 10.0 mi NNW 6.9 mph - N/A   Clear
1:53 AM 28.9 °F 21.9 °F 16.0 °F 58% 30.11 in 10.0 mi NNW 6.9 mph - N/A   Clear
2:53 AM 28.0 °F 20.0 °F 17.1 °F 63% 30.09 in 10.0 mi NNW 8.1 mph - N/A   Clear
3:53 AM 27.0 °F 18.7 °F 16.0 °F 63% 30.07 in 10.0 mi North 8.1 mph - N/A   Clear
4:53 AM 28.0 °F 20.8 °F 16.0 °F 61% 30.05 in 10.0 mi NNW 6.9 mph - N/A   Clear
5:53 AM 26.1 °F 20.5 °F 16.0 °F 66% 30.05 in 10.0 mi NNW 4.6 mph - N/A   Clear
6:53 AM 25.0 °F - 16.0 °F 69% 30.07 in 10.0 mi Calm Calm - N/A   Clear
7:53 AM 27.0 °F 23.0 °F 18.0 °F 69% 30.06 in 10.0 mi South 3.5 mph - N/A   Clear
8:53 AM 36.0 °F - 18.0 °F 48% 30.00 in 10.0 mi Calm Calm - N/A   Clear
9:53 AM 39.9 °F - 19.9 °F 45% 29.99 in 10.0 mi Calm Calm - N/A   Clear
10:53 AM 50.0 °F - 21.9 °F 33% 29.93 in 10.0 mi Calm Calm - N/A   Clear
11:53 AM 62.1 °F - 24.1 °F 23% 29.86 in 10.0 mi West 10.4 mph - N/A   Clear
12:53 PM 66.9 °F - 21.9 °F 18% 29.82 in 10.0 mi West 27.6 mph 34.5 mph N/A   Clear
1:53 PM 69.1 °F - 21.0 °F 16% 29.79 in 10.0 mi WNW 24.2 mph 33.4 mph N/A   Clear
2:53 PM 66.9 °F - 21.9 °F 18% 29.78 in 10.0 mi West 23.0 mph 31.1 mph N/A   Clear
3:53 PM 71.1 °F - 23.0 °F 16% 29.77 in 10.0 mi WNW 19.6 mph 31.1 mph N/A   Clear
4:53 PM 66.0 °F - 21.9 °F 19% 29.77 in 10.0 mi WNW 23.0 mph 35.7 mph N/A   Clear
5:53 PM 63.0 °F - 21.9 °F 21% 29.79 in 10.0 mi WNW 20.7 mph 26.5 mph N/A   Clear
6:53 PM 59.0 °F - 23.0 °F 25% 29.82 in 10.0 mi WNW 11.5 mph - N/A   Clear
7:53 PM 52.0 °F - 23.0 °F 32% 29.83 in 10.0 mi NNE 5.8 mph - N/A   Clear
8:53 PM 55.9 °F - 21.9 °F 27% 29.78 in 10.0 mi West 9.2 mph - N/A   Clear
9:53 PM 55.9 °F - 21.0 °F 26% 29.75 in 10.0 mi WNW 3.5 mph - N/A   Clear
10:53 PM 50.0 °F - 23.0 °F 35% 29.73 in 10.0 mi North 6.9 mph - N/A   Clear
11:53 PM 51.1 °F - 23.0 °F 33% 29.69 in 10.0 mi NNW 11.5 mph - N/A   Mostly Cloudy